Location: Härggis
(46.9540°N, 8.4897°E)
Time: 20:10:45
(UTC+00:00)

Cosmos 2297 - Pass Details

Date: 27 May 2022
Orbit: 834 x 859 km, 71.0° (Epoch: 02 July)

Event Time Altitude Azimuth Distance (km) Brightness Sun altitude
Rises 01:12:17 0° 332° (NNW) 3,446 7.4 -17.5°
Reaches altitude 10° 01:14:45 10° 333° (NNW) 2,506 6.6 -17.3°
Maximum altitude 01:20:32 89° 246° (WSW) 866 3.7 -16.8°
Drops below altitude 10° 01:26:16 10° 155° (SSE) 2,484 5.8 -16.3°
Enters shadow 01:26:56 - 155° (SSE) 2,740 6.0 -16.3°
